Seminole, TX

3:32 PM CDT on October 19, 2019 (GMT -0500)
Seminole

Weather History for KGNC - September, 2019

Change the Weather History Date:

Tuesday, September 17, 2019

  Actual Average (KHOB) Record (KHOB)
Temperature  
Mean Temperature 76 °F -  
Max Temperature 92 °F 85 °F 98 °F (1997)
Min Temperature 61 °F 59 °F 44 °F (1951)
Cooling Degree Days 11    
Growing Degree Days 26 (Base 50)    
Moisture  
Dew Point 54 °F    
Average Humidity 47    
Maximum Humidity 76    
Minimum Humidity 24    
Precipitation  
Precipitation 0.00 in - - ()
Sea Level Pressure  
Sea Level Pressure 30.08 in    
Wind  
Wind Speed 4 mph (SSE)    
Max Wind Speed 13 mph    
Max Gust Speed 26 mph    
Visibility 10 miles    
Events      
Averages and records for this station are not official NWS values.
T = Trace of Precipitation, MM = Missing Value Source: NWS Daily Summary

Daily Weather History Graph

Daily Weather History Graph

Search for Another Location

Airport or City:

Astronomy

Sep. 17, 2019 Rise Set
Actual Time 7:35 AM CDT 7:54 PM CDT
Civil Twilight 7:10 AM CDT 8:18 PM CDT
Nautical Twilight 6:41 AM CDT 8:47 PM CDT
Astronomical Twilight 6:12 AM CDT 9:16 PM CDT
Moon 10:08 PM CDT (9/17) 10:33 AM CDT (9/17)
Length of Visible Light 13h 08m
Length of Day
12h 18m
Waning Gibbous, 89% of the Moon is Illuminated
Sep 17
Waning Gibbous
Sep 21
Last Quarter
Sep 28
New
Oct 5
First Quarter
Oct 13
Full

Hourly Weather History & Observations

Time (CDT) Temp. Heat Index Dew Point Humidity Pressure Visibility Wind Dir Wind Speed Gust Speed Precip Events Conditions
12:15 AM 70.7 °F - 55.4 °F 58% 30.11 in 10.0 mi SSE 3.5 mph - N/A   Clear
12:35 AM 70.0 °F - 55.0 °F 59% 30.11 in 10.0 mi SSE 4.6 mph - N/A   Clear
12:55 AM 69.3 °F - 55.4 °F 61% 30.12 in 10.0 mi SSE 3.5 mph - N/A   Clear
1:15 AM 68.5 °F - 55.4 °F 63% 30.11 in 10.0 mi SE 4.6 mph - N/A   Clear
1:35 AM 68.4 °F - 55.6 °F 64% 30.11 in 10.0 mi South 4.6 mph - N/A   Clear
1:55 AM 68.5 °F - 55.6 °F 63% 30.11 in 10.0 mi SSE 3.5 mph - N/A   Clear
2:15 AM 68.9 °F - 55.4 °F 62% 30.11 in 10.0 mi South 3.5 mph - N/A   Clear
2:35 AM 68.2 °F - 55.4 °F 64% 30.11 in 10.0 mi Calm Calm - N/A   Clear
2:55 AM 68.0 °F - 55.4 °F 64% 30.11 in 10.0 mi Calm Calm - N/A   Clear
3:15 AM 67.5 °F - 55.4 °F 65% 30.11 in 10.0 mi Calm Calm - N/A   Clear
3:35 AM 67.6 °F - 55.4 °F 65% 30.10 in 10.0 mi Calm Calm - N/A   Clear
3:55 AM 67.5 °F - 55.4 °F 65% 30.10 in 10.0 mi Calm Calm - N/A   Clear
4:15 AM 66.6 °F - 55.4 °F 67% 30.10 in 10.0 mi Calm Calm - N/A   Clear
4:35 AM 65.3 °F - 55.4 °F 70% 30.10 in 10.0 mi Calm Calm - N/A   Clear
4:55 AM 64.6 °F - 55.4 °F 72% 30.10 in 10.0 mi Calm Calm - N/A   Clear
5:15 AM 63.5 °F - 54.9 °F 73% 30.09 in 10.0 mi Calm Calm - N/A   Clear
5:35 AM 63.5 °F - 55.2 °F 74% 30.09 in 10.0 mi Calm Calm - N/A   Clear
5:55 AM 63.5 °F - 55.4 °F 75% 30.10 in 10.0 mi Calm Calm - N/A   Clear
6:15 AM 61.9 °F - 54.1 °F 76% 30.10 in 10.0 mi Calm Calm - N/A   Clear
6:35 AM 63.0 °F - 55.0 °F 75% 30.10 in 10.0 mi Calm Calm - N/A   Clear
6:55 AM 63.3 °F - 55.4 °F 75% 30.11 in 10.0 mi Calm Calm - N/A   Clear
7:15 AM 63.5 °F - 55.0 °F 74% 30.11 in 10.0 mi Calm Calm - N/A   Clear
7:35 AM 62.6 °F - 54.7 °F 75% 30.11 in 10.0 mi Calm Calm - N/A   Clear
7:55 AM 63.0 °F - 55.2 °F 76% 30.12 in 10.0 mi Calm Calm - N/A   Clear
8:15 AM 64.4 °F - 55.6 °F 73% 30.12 in 10.0 mi Calm Calm - N/A   Clear
8:35 AM 65.5 °F - 56.3 °F 72% 30.12 in 10.0 mi Calm Calm - N/A   Clear
8:55 AM 69.4 °F - 56.1 °F 62% 30.12 in 10.0 mi ESE 3.5 mph - N/A   Clear
9:15 AM 71.4 °F - 56.7 °F 60% 30.13 in 10.0 mi SE 3.5 mph - N/A   Clear
9:35 AM 74.3 °F - 56.8 °F 54% 30.13 in 10.0 mi SSE 5.8 mph - N/A   Clear
9:55 AM 77.0 °F - 57.2 °F 50% 30.13 in 10.0 mi SSE 6.9 mph - N/A   Clear
10:15 AM 78.3 °F - 57.2 °F 48% 30.13 in 10.0 mi South 10.4 mph 16.1 mph N/A   Clear
10:35 AM 80.6 °F 80.8 °F 57.2 °F 45% 30.13 in 10.0 mi South 11.5 mph - N/A   Clear
10:55 AM 81.0 °F 80.9 °F 56.7 °F 43% 30.14 in 10.0 mi South 11.5 mph 19.6 mph N/A   Clear
11:15 AM 82.9 °F 82.1 °F 55.9 °F 39% 30.14 in 10.0 mi South 10.4 mph 18.4 mph N/A   Scattered Clouds
11:35 AM 83.7 °F 82.4 °F 54.1 °F 36% 30.13 in 10.0 mi SSW 12.7 mph 18.4 mph N/A   Scattered Clouds
11:55 AM 84.9 °F 83.3 °F 53.4 °F 34% 30.13 in 10.0 mi South 10.4 mph - N/A   Clear
12:15 PM 86.2 °F - 52.7 °F 32% 30.12 in 10.0 mi South 11.5 mph 16.1 mph N/A   Clear
12:35 PM 87.1 °F 84.9 °F 53.2 °F 31% 30.12 in 10.0 mi South 9.2 mph - N/A   Clear
12:55 PM 87.8 °F - 52.0 °F 29% 30.11 in 10.0 mi SSE 11.5 mph - N/A   Clear
1:15 PM 87.8 °F - 51.4 °F 29% 30.11 in 10.0 mi SSW 9.2 mph 16.1 mph N/A   Clear
1:35 PM 89.6 °F - 51.3 °F 27% 30.09 in 10.0 mi SSW 10.4 mph - N/A   Clear
1:55 PM 88.9 °F - 52.2 °F 28% 30.08 in 10.0 mi SE 12.7 mph 16.1 mph N/A   Clear
2:15 PM 89.6 °F - 51.8 °F 27% 30.08 in 10.0 mi East 3.5 mph 9.2 mph N/A   Clear
2:35 PM 89.4 °F - 51.1 °F 27% 30.07 in 10.0 mi South 8.1 mph 18.4 mph N/A   Clear
2:55 PM 90.9 °F - 51.6 °F 26% 30.07 in 10.0 mi SE 10.4 mph 17.3 mph N/A   Clear
3:15 PM 91.4 °F - 51.3 °F 25% 30.06 in 10.0 mi SE 8.1 mph 18.4 mph N/A   Mostly Cloudy
3:35 PM 90.5 °F - 50.5 °F 25% 30.05 in 10.0 mi South 5.8 mph 26.5 mph N/A   Mostly Cloudy
3:55 PM 91.8 °F - 50.7 °F 25% 30.04 in 10.0 mi ESE 10.4 mph 17.3 mph N/A   Scattered Clouds
4:15 PM 91.8 °F - 50.9 °F 25% 30.03 in 10.0 mi SE 12.7 mph 16.1 mph N/A   Scattered Clouds
4:35 PM 91.4 °F - 50.2 °F 24% 30.03 in 10.0 mi SE 5.8 mph 19.6 mph N/A   Mostly Cloudy
4:55 PM 91.2 °F - 50.0 °F 24% 30.03 in 10.0 mi ESE 10.4 mph - N/A   Scattered Clouds
5:15 PM 91.0 °F - 49.8 °F 24% 30.03 in 10.0 mi South 6.9 mph - N/A   Scattered Clouds
5:35 PM 91.2 °F - 50.2 °F 24% 30.02 in 10.0 mi South 6.9 mph - N/A   Scattered Clouds
5:55 PM 90.5 °F - 50.2 °F 25% 30.01 in 10.0 mi South 8.1 mph - N/A   Scattered Clouds
6:15 PM 89.8 °F - 50.0 °F 25% 30.01 in 10.0 mi South 6.9 mph - N/A   Clear
6:35 PM 89.1 °F - 49.8 °F 26% 30.01 in 10.0 mi South 8.1 mph - N/A   Clear
6:55 PM 88.3 °F - 49.6 °F 26% 30.01 in 10.0 mi SSE 8.1 mph - N/A   Clear
7:15 PM 87.8 °F - 50.0 °F 27% 30.01 in 10.0 mi SSE 6.9 mph - N/A   Clear
7:35 PM 86.2 °F - 50.0 °F 29% 30.01 in 10.0 mi SSE 5.8 mph - N/A   Clear
7:55 PM 84.2 °F - 50.9 °F 32% 30.02 in 10.0 mi SSE 4.6 mph - N/A   Clear
8:15 PM 82.6 °F - 50.9 °F 33% 30.03 in 10.0 mi SSE 4.6 mph - N/A   Clear
8:35 PM 79.9 °F - 50.9 °F 36% 30.03 in 10.0 mi SE 3.5 mph - N/A   Clear
8:55 PM 78.6 °F - 51.8 °F 39% 30.04 in 10.0 mi SE 3.5 mph - N/A   Clear
9:15 PM 77.2 °F - 52.7 °F 42% 30.04 in 10.0 mi SE 5.8 mph - N/A   Clear
9:35 PM 77.0 °F - 52.7 °F 43% 30.05 in 10.0 mi SSE 5.8 mph - N/A   Clear
9:55 PM 77.7 °F - 52.9 °F 42% 30.05 in 10.0 mi SE 6.9 mph - N/A   Clear
10:15 PM 77.2 °F - 53.4 °F 44% 30.05 in 10.0 mi SSE 5.8 mph - N/A   Clear
10:35 PM 76.1 °F - 53.8 °F 46% 30.06 in 10.0 mi SSE 4.6 mph - N/A   Clear
10:55 PM 75.2 °F - 54.5 °F 48% 30.06 in 10.0 mi SSE 4.6 mph - N/A   Clear
11:15 PM 75.4 °F - 54.7 °F 48% 30.07 in 10.0 mi SSE 4.6 mph - N/A   Clear
11:35 PM 74.5 °F - 54.9 °F 50% 30.07 in 10.0 mi SSE 4.6 mph - N/A   Clear
11:55 PM 74.3 °F - 55.4 °F 52% 30.06 in 10.0 mi SSE 5.8 mph - N/A   Clear